Time,TemperatureF,DewpointF,PressureIn,WindDirection,WindDirectionDegrees,WindSpeedMPH,WindSpeedGustMPH,Humidity,HourlyPrecipIn,Conditions,Clouds,dailyrainin,SoftwareType,DateUTC
2013-09-10 00:00:00,73.2,59.4,29.81,SSE,166,0.0,5.0,62,0.00,,,-99.99,Weather View 32 v60,2013-09-10 04:00:00,
2013-09-10 00:05:00,73.2,59.4,29.81,SSE,157,2.0,5.0,62,0.00,,,-99.99,Weather View 32 v60,2013-09-10 04:05:00,
2013-09-10 00:10:00,73.2,59.4,29.81,SSE,167,2.0,5.0,62,0.00,,,-99.99,Weather View 32 v60,2013-09-10 04:10:00,
2013-09-10 00:15:00,73.2,59.4,29.81,SSE,162,2.0,5.0,62,0.00,,,-99.99,Weather View 32 v60,2013-09-10 04:15:00,
2013-09-10 00:20:00,73.2,59.4,29.78,South,190,0.0,5.0,62,0.00,,,-99.99,Weather View 32 v60,2013-09-10 04:20:00,
2013-09-10 00:25:00,73.0,59.2,29.78,SSE,160,0.0,5.0,62,0.00,,,-99.99,Weather View 32 v60,2013-09-10 04:25:00,
2013-09-10 00:30:00,73.0,59.7,29.78,SSE,154,0.0,5.0,63,0.00,,,-99.99,Weather View 32 v60,2013-09-10 04:30:00,
2013-09-10 00:35:00,73.0,59.7,29.81,SE,142,0.0,5.0,63,0.00,,,-99.99,Weather View 32 v60,2013-09-10 04:35:00,
2013-09-10 00:40:00,73.0,59.7,29.81,SE,143,0.0,5.0,63,0.00,,,-99.99,Weather View 32 v60,2013-09-10 04:40:00,
2013-09-10 00:45:00,73.0,59.7,29.81,WNW,284,3.0,5.0,63,0.00,,,-99.99,Weather View 32 v60,2013-09-10 04:45:00,
2013-09-10 00:50:00,73.0,59.7,29.81,SSE,157,3.0,6.0,63,0.00,,,-99.99,Weather View 32 v60,2013-09-10 04:50:00,
2013-09-10 00:55:00,73.0,59.7,29.78,South,179,0.0,6.0,63,0.00,,,-99.99,Weather View 32 v60,2013-09-10 04:55:00,
2013-09-10 01:00:00,73.0,59.7,29.78,SSE,165,0.0,6.0,63,0.00,,,-99.99,Weather View 32 v60,2013-09-10 05:00:00,
2013-09-10 01:05:00,73.0,59.7,29.78,South,172,0.0,6.0,63,0.00,,,-99.99,Weather View 32 v60,2013-09-10 05:05:00,
2013-09-10 01:10:00,73.0,59.7,29.78,SSE,163,0.0,6.0,63,0.00,,,-99.99,Weather View 32 v60,2013-09-10 05:10:00,
2013-09-10 01:15:00,73.0,59.7,29.78,SSE,163,0.0,6.0,63,0.00,,,-99.99,Weather View 32 v60,2013-09-10 05:15:00,
2013-09-10 01:20:00,73.0,59.7,29.78,SSE,164,0.0,6.0,63,0.00,,,-99.99,Weather View 32 v60,2013-09-10 05:20:00,
2013-09-10 01:25:00,73.2,59.8,29.78,West,259,4.0,6.0,63,0.00,,,-99.99,Weather View 32 v60,2013-09-10 05:25:00,
2013-09-10 01:30:00,73.2,59.8,29.78,South,180,0.0,6.0,63,0.00,,,-99.99,Weather View 32 v60,2013-09-10 05:30:00,
2013-09-10 01:35:00,73.2,59.8,29.78,South,187,0.0,6.0,63,0.00,,,-99.99,Weather View 32 v60,2013-09-10 05:35:00,
2013-09-10 01:40:00,73.2,59.8,29.78,SW,233,0.0,6.0,63,0.00,,,-99.99,Weather View 32 v60,2013-09-10 05:40:00,
2013-09-10 01:45:00,73.2,59.8,29.78,SW,233,0.0,6.0,63,0.00,,,-99.99,Weather View 32 v60,2013-09-10 05:45:00,
2013-09-10 01:50:00,73.2,59.8,29.78,South,170,0.0,5.0,63,0.00,,,-99.99,Weather View 32 v60,2013-09-10 05:50:00,
2013-09-10 01:55:00,73.2,59.8,29.78,South,170,0.0,5.0,63,0.00,,,-99.99,Weather View 32 v60,2013-09-10 05:55:00,
2013-09-10 02:00:00,73.2,59.8,29.78,South,174,0.0,5.0,63,0.00,,,-99.99,Weather View 32 v60,2013-09-10 06:00:00,
2013-09-10 02:05:00,73.2,59.8,29.81,South,176,0.0,5.0,63,0.00,,,-99.99,Weather View 32 v60,2013-09-10 06:05:00,
2013-09-10 02:10:00,73.2,59.8,29.81,SSW,210,0.0,5.0,63,0.00,,,-99.99,Weather View 32 v60,2013-09-10 06:10:00,
2013-09-10 02:15:00,73.2,59.8,29.81,South,184,0.0,4.0,63,0.00,,,-99.99,Weather View 32 v60,2013-09-10 06:15:00,
2013-09-10 02:20:00,73.2,59.8,29.81,SW,216,0.0,4.0,63,0.00,,,-99.99,Weather View 32 v60,2013-09-10 06:20:00,
2013-09-10 02:25:00,73.2,60.3,29.81,SSE,148,0.0,4.0,64,0.00,,,-99.99,Weather View 32 v60,2013-09-10 06:25:00,
2013-09-10 02:30:00,73.2,60.3,29.81,SW,230,0.0,4.0,64,0.00,,,-99.99,Weather View 32 v60,2013-09-10 06:30:00,
2013-09-10 02:35:00,73.2,59.8,29.81,South,170,0.0,4.0,63,0.00,,,-99.99,Weather View 32 v60,2013-09-10 06:35:00,
2013-09-10 02:40:00,73.2,60.3,29.81,SSE,168,0.0,4.0,64,0.00,,,-99.99,Weather View 32 v60,2013-09-10 06:40:00,
2013-09-10 02:45:00,73.2,60.3,29.81,SSE,166,0.0,4.0,64,0.00,,,-99.99,Weather View 32 v60,2013-09-10 06:45:00,
2013-09-10 02:50:00,73.2,60.3,29.81,SSE,166,0.0,4.0,64,0.00,,,-99.99,Weather View 32 v60,2013-09-10 06:50:00,
2013-09-10 02:55:00,73.2,60.3,29.81,SSE,166,0.0,4.0,64,0.00,,,-99.99,Weather View 32 v60,2013-09-10 06:55:00,
2013-09-10 03:00:00,73.2,60.3,29.81,SSE,165,0.0,4.0,64,0.00,,,-99.99,Weather View 32 v60,2013-09-10 07:00:00,
2013-09-10 03:05:00,73.2,60.7,29.81,SSE,166,0.0,4.0,65,0.00,,,-99.99,Weather View 32 v60,2013-09-10 07:05:00,
2013-09-10 03:10:00,73.2,60.7,29.81,SSE,166,0.0,4.0,65,0.00,,,-99.99,Weather View 32 v60,2013-09-10 07:10:00,
2013-09-10 03:15:00,73.2,60.7,29.81,South,177,0.0,4.0,65,0.00,,,-99.99,Weather View 32 v60,2013-09-10 07:15:00,
2013-09-10 03:20:00,73.2,60.7,29.81,South,176,0.0,4.0,65,0.00,,,-99.99,Weather View 32 v60,2013-09-10 07:20:00,
2013-09-10 03:30:00,73.0,61.0,29.81,South,176,0.0,4.0,66,0.00,,,-99.99,Weather View 32 v60,2013-09-10 07:30:00,
2013-09-10 03:35:00,73.0,61.0,29.81,South,176,0.0,4.0,66,0.00,,,-99.99,Weather View 32 v60,2013-09-10 07:35:00,
2013-09-10 03:40:00,73.0,61.0,29.81,South,176,0.0,4.0,66,0.00,,,-99.99,Weather View 32 v60,2013-09-10 07:40:00,
2013-09-10 03:45:00,73.0,61.0,29.81,South,176,0.0,4.0,66,0.00,,,-99.99,Weather View 32 v60,2013-09-10 07:45:00,
2013-09-10 03:50:00,73.0,61.0,29.81,South,191,0.0,5.0,66,0.00,,,-99.99,Weather View 32 v60,2013-09-10 07:50:00,
2013-09-10 03:55:00,73.0,61.4,29.81,South,177,3.0,5.0,67,0.00,,,-99.99,Weather View 32 v60,2013-09-10 07:55:00,
2013-09-10 04:00:00,73.0,61.4,29.81,SW,219,0.0,5.0,67,0.00,,,-99.99,Weather View 32 v60,2013-09-10 08:00:00,
2013-09-10 04:05:00,73.0,61.4,29.81,WSW,256,3.0,5.0,67,0.00,,,-99.99,Weather View 32 v60,2013-09-10 08:05:00,
2013-09-10 04:10:00,73.2,61.6,29.81,WSW,241,3.0,5.0,67,0.00,,,-99.99,Weather View 32 v60,2013-09-10 08:10:00,
2013-09-10 04:15:00,73.4,61.7,29.81,West,271,4.0,5.0,67,0.00,,,-99.99,Weather View 32 v60,2013-09-10 08:15:00,
2013-09-10 04:20:00,73.6,61.9,29.81,WSW,240,3.0,5.0,67,0.00,,,-99.99,Weather View 32 v60,2013-09-10 08:20:00,
2013-09-10 04:25:00,73.8,62.1,29.81,SW,231,3.0,5.0,67,0.00,,,-99.99,Weather View 32 v60,2013-09-10 08:25:00,
2013-09-10 04:30:00,73.9,62.2,29.81,WSW,242,3.0,8.0,67,0.00,,,-99.99,Weather View 32 v60,2013-09-10 08:30:00,
2013-09-10 04:40:00,74.3,62.6,29.81,WSW,243,4.0,8.0,67,0.00,,,-99.99,Weather View 32 v60,2013-09-10 08:40:00,
2013-09-10 04:50:00,74.7,62.5,29.81,SSW,206,6.0,9.0,66,0.00,,,-99.99,Weather View 32 v60,2013-09-10 08:50:00,
2013-09-10 04:55:00,74.8,62.2,29.81,WSW,257,5.0,9.0,65,0.00,,,-99.99,Weather View 32 v60,2013-09-10 08:55:00,
2013-09-10 05:00:00,75.0,62.0,29.81,West,264,3.0,9.0,64,0.00,,,-99.99,Weather View 32 v60,2013-09-10 09:00:00,
2013-09-10 05:05:00,75.2,61.2,29.81,WSW,246,8.0,9.0,62,0.00,,,-99.99,Weather View 32 v60,2013-09-10 09:05:00,
2013-09-10 05:10:00,75.4,60.9,29.81,WSW,237,4.0,9.0,61,0.00,,,-99.99,Weather View 32 v60,2013-09-10 09:10:00,
2013-09-10 05:15:00,75.4,60.5,29.81,WSW,253,8.0,9.0,60,0.00,,,-99.99,Weather View 32 v60,2013-09-10 09:15:00,
2013-09-10 05:25:00,75.6,60.2,29.84,SW,220,6.0,9.0,59,0.00,,,-99.99,Weather View 32 v60,2013-09-10 09:25:00,
2013-09-10 05:30:00,75.7,59.9,29.84,SW,225,3.0,9.0,58,0.00,,,-99.99,Weather View 32 v60,2013-09-10 09:30:00,
2013-09-10 05:35:00,75.7,59.4,29.84,West,262,4.0,9.0,57,0.00,,,-99.99,Weather View 32 v60,2013-09-10 09:35:00,
2013-09-10 05:40:00,75.7,59.4,29.84,WSW,247,4.0,9.0,57,0.00,,,-99.99,Weather View 32 v60,2013-09-10 09:40:00,
2013-09-10 05:45:00,75.9,59.0,29.84,South,171,3.0,9.0,56,0.00,,,-99.99,Weather View 32 v60,2013-09-10 09:45:00,
2013-09-10 05:50:00,75.9,59.0,29.84,SW,225,3.0,9.0,56,0.00,,,-99.99,Weather View 32 v60,2013-09-10 09:50:00,
2013-09-10 05:55:00,75.9,58.5,29.84,SW,219,3.0,9.0,55,0.00,,,-99.99,Weather View 32 v60,2013-09-10 09:55:00,
2013-09-10 06:00:00,75.9,58.5,29.84,SW,222,4.0,9.0,55,0.00,,,-99.99,Weather View 32 v60,2013-09-10 10:00:00,
2013-09-10 06:05:00,75.9,58.0,29.84,South,187,3.0,8.0,54,0.00,,,-99.99,Weather View 32 v60,2013-09-10 10:05:00,
2013-09-10 06:10:00,75.9,58.0,29.84,SW,230,6.0,8.0,54,0.00,,,-99.99,Weather View 32 v60,2013-09-10 10:10:00,
2013-09-10 06:15:00,75.9,58.0,29.84,SSW,193,6.0,8.0,54,0.00,,,-99.99,Weather View 32 v60,2013-09-10 10:15:00,
2013-09-10 06:25:00,75.9,57.5,29.84,NW,315,3.0,8.0,53,0.00,,,-99.99,Weather View 32 v60,2013-09-10 10:25:00,
2013-09-10 06:30:00,75.9,57.0,29.84,SSW,202,8.0,8.0,52,0.00,,,-99.99,Weather View 32 v60,2013-09-10 10:30:00,
2013-09-10 06:35:00,75.9,57.0,29.84,SW,226,6.0,8.0,52,0.00,,,-99.99,Weather View 32 v60,2013-09-10 10:35:00,
2013-09-10 06:40:00,76.1,56.6,29.84,SSW,207,4.0,8.0,51,0.00,,,-99.99,Weather View 32 v60,2013-09-10 10:40:00,
2013-09-10 06:45:00,76.1,56.0,29.84,West,268,3.0,9.0,50,0.00,,,-99.99,Weather View 32 v60,2013-09-10 10:45:00,
2013-09-10 06:50:00,76.1,56.0,29.84,WSW,250,5.0,9.0,50,0.00,,,-99.99,Weather View 32 v60,2013-09-10 10:50:00,
2013-09-10 06:55:00,76.1,56.0,29.84,West,260,8.0,9.0,50,0.00,,,-99.99,Weather View 32 v60,2013-09-10 10:55:00,
2013-09-10 07:00:00,76.1,55.5,29.84,WSW,243,4.0,9.0,49,0.00,,,-99.99,Weather View 32 v60,2013-09-10 11:00:00,
2013-09-10 07:05:00,76.1,55.5,29.84,SW,222,8.0,11.0,49,0.00,,,-99.99,Weather View 32 v60,2013-09-10 11:05:00,
2013-09-10 07:10:00,76.1,54.9,29.84,WSW,243,5.0,11.0,48,0.00,,,-99.99,Weather View 32 v60,2013-09-10 11:10:00,
2013-09-10 07:15:00,76.1,54.9,29.84,SW,236,6.0,11.0,48,0.00,,,-99.99,Weather View 32 v60,2013-09-10 11:15:00,
2013-09-10 07:20:00,76.1,54.9,29.84,SSW,212,5.0,11.0,48,0.00,,,-99.99,Weather View 32 v60,2013-09-10 11:20:00,
2013-09-10 07:25:00,76.1,54.9,29.84,NW,306,4.0,11.0,48,0.00,,,-99.99,Weather View 32 v60,2013-09-10 11:25:00,
2013-09-10 07:30:00,76.1,54.3,29.84,WSW,252,5.0,11.0,47,0.00,,,-99.99,Weather View 32 v60,2013-09-10 11:30:00,
2013-09-10 07:35:00,76.1,54.3,29.84,WSW,257,3.0,11.0,47,0.00,,,-99.99,Weather View 32 v60,2013-09-10 11:35:00,
2013-09-10 07:40:00,76.1,54.3,29.84,SW,221,4.0,11.0,47,0.00,,,-99.99,Weather View 32 v60,2013-09-10 11:40:00,
2013-09-10 07:45:00,75.9,54.2,29.84,SW,215,6.0,11.0,47,0.00,,,-99.99,Weather View 32 v60,2013-09-10 11:45:00,
2013-09-10 07:50:00,75.9,53.6,29.84,SW,216,5.0,11.0,46,0.00,,,-99.99,Weather View 32 v60,2013-09-10 11:50:00,
2013-09-10 07:55:00,75.9,53.6,29.84,West,268,4.0,11.0,46,0.00,,,-99.99,Weather View 32 v60,2013-09-10 11:55:00,
2013-09-10 08:00:00,75.9,53.6,29.84,WSW,239,4.0,11.0,46,0.00,,,-99.99,Weather View 32 v60,2013-09-10 12:00:00,
2013-09-10 08:05:00,75.9,53.6,29.84,SSW,210,4.0,9.0,46,0.00,,,-99.99,Weather View 32 v60,2013-09-10 12:05:00,
2013-09-10 08:10:00,75.9,53.6,29.87,West,274,3.0,9.0,46,0.00,,,-99.99,Weather View 32 v60,2013-09-10 12:10:00,
2013-09-10 08:15:00,76.1,53.8,29.87,SW,236,3.0,9.0,46,0.00,,,-99.99,Weather View 32 v60,2013-09-10 12:15:00,
2013-09-10 08:20:00,76.1,53.8,29.84,SW,221,4.0,9.0,46,0.00,,,-99.99,Weather View 32 v60,2013-09-10 12:20:00,
2013-09-10 08:25:00,76.3,53.9,29.84,West,265,4.0,9.0,46,0.00,,,-99.99,Weather View 32 v60,2013-09-10 12:25:00,
2013-09-10 08:30:00,76.5,53.5,29.84,WSW,252,6.0,10.0,45,0.00,,,-99.99,Weather View 32 v60,2013-09-10 12:30:00,
2013-09-10 08:35:00,76.6,53.6,29.84,West,267,4.0,10.0,45,0.00,,,-99.99,Weather View 32 v60,2013-09-10 12:35:00,
2013-09-10 08:40:00,76.8,53.8,29.87,SSE,166,4.0,10.0,45,0.00,,,-99.99,Weather View 32 v60,2013-09-10 12:40:00,
2013-09-10 08:45:00,77.2,53.5,29.87,SSE,147,3.0,10.0,44,0.00,,,-99.99,Weather View 32 v60,2013-09-10 12:45:00,
2013-09-10 08:50:00,77.4,53.7,29.87,SW,224,2.0,10.0,44,0.00,,,-99.99,Weather View 32 v60,2013-09-10 12:50:00,
2013-09-10 08:55:00,77.5,53.2,29.87,SW,223,8.0,10.0,43,0.00,,,-99.99,Weather View 32 v60,2013-09-10 12:55:00,
2013-09-10 09:00:00,77.7,52.7,29.87,SW,223,4.0,10.0,42,0.00,,,-99.99,Weather View 32 v60,2013-09-10 13:00:00,
2013-09-10 09:05:00,77.7,52.7,29.87,WSW,248,4.0,13.0,42,0.00,,,-99.99,Weather View 32 v60,2013-09-10 13:05:00,
2013-09-10 09:10:00,77.9,52.9,29.87,West,261,5.0,13.0,42,0.00,,,-99.99,Weather View 32 v60,2013-09-10 13:10:00,
2013-09-10 09:15:00,78.1,52.4,29.87,SW,236,3.0,13.0,41,0.00,,,-99.99,Weather View 32 v60,2013-09-10 13:15:00,
2013-09-10 09:25:00,78.3,52.6,29.87,WNW,303,5.0,13.0,41,0.00,,,-99.99,Weather View 32 v60,2013-09-10 13:25:00,
2013-09-10 09:30:00,78.4,52.7,29.87,WSW,239,8.0,13.0,41,0.00,,,-99.99,Weather View 32 v60,2013-09-10 13:30:00,
2013-09-10 09:35:00,78.6,52.2,29.87,West,279,4.0,13.0,40,0.00,,,-99.99,Weather View 32 v60,2013-09-10 13:35:00,
2013-09-10 09:43:00,78.8,52.4,29.87,SW,219,3.0,13.0,40,0.00,,,-99.99,Weather View 32 v60,2013-09-10 13:43:00,
2013-09-10 09:50:00,79.2,52.0,29.87,WSW,256,5.0,13.0,39,0.00,,,-99.99,Weather View 32 v60,2013-09-10 13:50:00,
2013-09-10 09:55:00,79.2,51.3,29.87,West,277,11.0,13.0,38,0.00,,,-99.99,Weather View 32 v60,2013-09-10 13:55:00,
2013-09-10 10:00:00,79.3,51.4,29.87,WSW,250,6.0,13.0,38,0.00,,,-99.99,Weather View 32 v60,2013-09-10 14:00:00,
2013-09-10 10:10:00,79.5,51.6,29.87,West,266,8.0,12.0,38,0.00,,,-99.99,Weather View 32 v60,2013-09-10 14:10:00,
2013-09-10 10:15:00,79.7,51.0,29.87,WSW,248,6.0,12.0,37,0.00,,,-99.99,Weather View 32 v60,2013-09-10 14:15:00,
2013-09-10 10:20:00,79.9,50.5,29.87,West,277,10.0,12.0,36,0.00,,,-99.99,Weather View 32 v60,2013-09-10 14:20:00,
2013-09-10 10:30:00,80.2,50.0,29.87,WSW,251,6.0,12.0,35,0.00,,,-99.99,Weather View 32 v60,2013-09-10 14:30:00,
2013-09-10 10:35:00,80.4,49.4,29.87,West,266,13.0,13.0,34,0.00,,,-99.99,Weather View 32 v60,2013-09-10 14:35:00,
2013-09-10 10:40:00,80.6,48.7,29.87,SW,216,8.0,13.0,33,0.00,,,-99.99,Weather View 32 v60,2013-09-10 14:40:00,
2013-09-10 10:45:00,80.8,48.9,29.87,WSW,247,4.0,13.0,33,0.00,,,-99.99,Weather View 32 v60,2013-09-10 14:45:00,
2013-09-10 10:55:00,81.1,49.2,29.90,WNW,289,10.0,13.0,33,0.00,,,-99.99,Weather View 32 v60,2013-09-10 14:55:00,
2013-09-10 11:00:00,81.3,49.4,29.90,South,178,6.0,13.0,33,0.00,,,-99.99,Weather View 32 v60,2013-09-10 15:00:00,
2013-09-10 11:05:00,81.5,48.7,29.90,West,270,8.0,13.0,32,0.00,,,-99.99,Weather View 32 v60,2013-09-10 15:05:00,
2013-09-10 11:15:00,81.9,48.2,29.90,SW,236,11.0,13.0,31,0.00,,,-99.99,Weather View 32 v60,2013-09-10 15:15:00,
2013-09-10 11:20:00,82.0,48.3,29.90,SSW,211,8.0,15.0,31,0.00,,,-99.99,Weather View 32 v60,2013-09-10 15:20:00,
2013-09-10 11:25:00,82.2,48.5,29.90,WNW,286,10.0,15.0,31,0.00,,,-99.99,Weather View 32 v60,2013-09-10 15:25:00,
2013-09-10 11:35:00,82.4,48.6,29.90,SW,217,8.0,15.0,31,0.00,,,-99.99,Weather View 32 v60,2013-09-10 15:35:00,
2013-09-10 11:40:00,82.6,48.8,29.90,WSW,254,6.0,15.0,31,0.00,,,-99.99,Weather View 32 v60,2013-09-10 15:40:00,
2013-09-10 11:45:00,82.8,48.1,29.90,WNW,290,6.0,15.0,30,0.00,,,-99.99,Weather View 32 v60,2013-09-10 15:45:00,
2013-09-10 11:55:00,83.1,48.4,29.90,WSW,252,11.0,15.0,30,0.00,,,-99.99,Weather View 32 v60,2013-09-10 15:55:00,
2013-09-10 12:00:00,83.3,48.5,29.90,SW,236,6.0,15.0,30,0.00,,,-99.99,Weather View 32 v60,2013-09-10 16:00:00,
2013-09-10 12:05:00,83.5,48.7,29.90,SSW,206,5.0,15.0,30,0.00,,,-99.99,Weather View 32 v60,2013-09-10 16:05:00,
2013-09-10 12:15:00,83.8,48.1,29.87,SW,232,8.0,15.0,29,0.00,,,-99.99,Weather View 32 v60,2013-09-10 16:15:00,
2013-09-10 12:20:00,84.0,49.1,29.90,SW,215,5.0,15.0,30,0.00,,,-99.99,Weather View 32 v60,2013-09-10 16:20:00,
2013-09-10 12:25:00,84.2,48.4,29.90,West,259,8.0,15.0,29,0.00,,,-99.99,Weather View 32 v60,2013-09-10 16:25:00,
2013-09-10 12:35:00,84.6,48.7,29.90,South,185,4.0,15.0,29,0.00,,,-99.99,Weather View 32 v60,2013-09-10 16:35:00,
2013-09-10 12:40:00,84.7,48.9,29.90,WSW,245,8.0,15.0,29,0.00,,,-99.99,Weather View 32 v60,2013-09-10 16:40:00,
2013-09-10 12:45:00,84.9,49.0,29.90,SSW,207,6.0,15.0,29,0.00,,,-99.99,Weather View 32 v60,2013-09-10 16:45:00,
2013-09-10 12:55:00,85.1,49.2,29.90,SW,235,6.0,15.0,29,0.00,,,-99.99,Weather View 32 v60,2013-09-10 16:55:00,
2013-09-10 13:00:00,85.3,49.3,29.90,SSW,205,5.0,15.0,29,0.00,,,-99.99,Weather View 32 v60,2013-09-10 17:00:00,
2013-09-10 13:05:00,85.5,48.5,29.90,WSW,245,11.0,15.0,28,0.00,,,-99.99,Weather View 32 v60,2013-09-10 17:05:00,
2013-09-10 13:15:00,86.0,49.0,29.90,SW,219,6.0,15.0,28,0.00,,,-99.99,Weather View 32 v60,2013-09-10 17:15:00,
2013-09-10 13:20:00,86.2,47.2,29.90,West,266,3.0,15.0,26,0.00,,,-99.99,Weather View 32 v60,2013-09-10 17:20:00,
2013-09-10 13:25:00,86.4,47.3,29.87,SW,234,5.0,15.0,26,0.00,,,-99.99,Weather View 32 v60,2013-09-10 17:25:00,
2013-09-10 13:30:00,86.5,47.5,29.87,WNW,298,8.0,15.0,26,0.00,,,-99.99,Weather View 32 v60,2013-09-10 17:30:00,
2013-09-10 13:40:00,86.9,46.7,29.87,WSW,246,8.0,15.0,25,0.00,,,-99.99,Weather View 32 v60,2013-09-10 17:40:00,
2013-09-10 13:45:00,87.1,46.9,29.87,SSW,212,6.0,15.0,25,0.00,,,-99.99,Weather View 32 v60,2013-09-10 17:45:00,
2013-09-10 13:55:00,87.3,47.0,29.87,WSW,247,4.0,15.0,25,0.00,,,-99.99,Weather View 32 v60,2013-09-10 17:55:00,
2013-09-10 14:00:00,87.3,47.0,29.87,West,280,9.0,15.0,25,0.00,,,-99.99,Weather View 32 v60,2013-09-10 18:00:00,
2013-09-10 14:05:00,87.4,46.1,29.87,SSW,211,8.0,15.0,24,0.00,,,-99.99,Weather View 32 v60,2013-09-10 18:05:00,
2013-09-10 14:10:00,87.4,46.1,29.87,WSW,246,4.0,15.0,24,0.00,,,-99.99,Weather View 32 v60,2013-09-10 18:10:00,
2013-09-10 14:20:00,87.6,45.1,29.87,WSW,252,6.0,15.0,23,0.00,,,-99.99,Weather View 32 v60,2013-09-10 18:20:00,
2013-09-10 14:25:00,87.6,45.1,29.87,WSW,257,8.0,15.0,23,0.00,,,-99.99,Weather View 32 v60,2013-09-10 18:25:00,
2013-09-10 14:30:00,87.8,44.1,29.87,WNW,298,4.0,15.0,22,0.00,,,-99.99,Weather View 32 v60,2013-09-10 18:30:00,
2013-09-10 14:40:00,88.0,43.0,29.90,West,276,8.0,15.0,21,0.00,,,-99.99,Weather View 32 v60,2013-09-10 18:40:00,
2013-09-10 14:45:00,88.2,43.2,29.90,SW,224,11.0,15.0,21,0.00,,,-99.99,Weather View 32 v60,2013-09-10 18:45:00,
2013-09-10 14:50:00,88.3,43.3,29.90,West,267,6.0,15.0,21,0.00,,,-99.99,Weather View 32 v60,2013-09-10 18:50:00,
2013-09-10 15:00:00,88.7,42.3,29.87,WSW,257,8.0,15.0,20,0.00,,,-99.99,Weather View 32 v60,2013-09-10 19:00:00,
2013-09-10 15:05:00,88.9,42.5,29.87,WNW,286,9.0,15.0,20,0.00,,,-99.99,Weather View 32 v60,2013-09-10 19:05:00,
2013-09-10 15:10:00,88.9,43.8,29.87,WNW,298,8.0,15.0,21,0.00,,,-99.99,Weather View 32 v60,2013-09-10 19:10:00,
2013-09-10 15:20:00,89.1,42.6,29.87,WSW,244,7.0,15.0,20,0.00,,,-99.99,Weather View 32 v60,2013-09-10 19:20:00,
2013-09-10 15:25:00,89.1,42.6,29.87,West,279,11.0,15.0,20,0.00,,,-99.99,Weather View 32 v60,2013-09-10 19:25:00,
2013-09-10 15:30:00,89.1,42.6,29.87,WSW,241,5.0,15.0,20,0.00,,,-99.99,Weather View 32 v60,2013-09-10 19:30:00,
2013-09-10 15:40:00,89.2,42.8,29.87,SW,234,4.0,15.0,20,0.00,,,-99.99,Weather View 32 v60,2013-09-10 19:40:00,
2013-09-10 15:45:00,89.2,41.5,29.87,SW,223,12.0,15.0,19,0.00,,,-99.99,Weather View 32 v60,2013-09-10 19:45:00,
2013-09-10 15:50:00,89.2,41.5,29.87,WNW,289,6.0,15.0,19,0.00,,,-99.99,Weather View 32 v60,2013-09-10 19:50:00,
2013-09-10 15:55:00,89.4,42.9,29.87,WSW,256,6.0,15.0,20,0.00,,,-99.99,Weather View 32 v60,2013-09-10 19:55:00,
2013-09-10 16:05:00,89.4,41.6,29.87,South,178,4.0,15.0,19,0.00,,,-99.99,Weather View 32 v60,2013-09-10 20:05:00,
2013-09-10 16:10:00,89.4,41.6,29.87,West,266,4.0,15.0,19,0.00,,,-99.99,Weather View 32 v60,2013-09-10 20:10:00,
2013-09-10 16:15:00,89.4,41.6,29.87,West,271,5.0,15.0,19,0.00,,,-99.99,Weather View 32 v60,2013-09-10 20:15:00,
2013-09-10 16:25:00,89.4,41.6,29.87,WSW,258,11.0,14.0,19,0.00,,,-99.99,Weather View 32 v60,2013-09-10 20:25:00,
2013-09-10 16:30:00,89.4,41.6,29.87,West,269,6.0,14.0,19,0.00,,,-99.99,Weather View 32 v60,2013-09-10 20:30:00,
2013-09-10 16:35:00,89.4,41.6,29.87,WSW,243,8.0,14.0,19,0.00,,,-99.99,Weather View 32 v60,2013-09-10 20:35:00,
2013-09-10 16:45:00,89.4,41.6,29.87,SW,234,8.0,14.0,19,0.00,,,-99.99,Weather View 32 v60,2013-09-10 20:45:00,
2013-09-10 16:50:00,89.4,41.6,29.87,WNW,287,5.0,14.0,19,0.00,,,-99.99,Weather View 32 v60,2013-09-10 20:50:00,
2013-09-10 16:55:00,89.4,41.6,29.87,West,262,5.0,14.0,19,0.00,,,-99.99,Weather View 32 v60,2013-09-10 20:55:00,
2013-09-10 17:00:00,89.4,41.6,29.87,West,268,7.0,14.0,19,0.00,,,-99.99,Weather View 32 v60,2013-09-10 21:00:00,
2013-09-10 17:05:00,89.4,41.6,29.87,West,270,4.0,15.0,19,0.00,,,-99.99,Weather View 32 v60,2013-09-10 21:05:00,
2013-09-10 17:10:00,89.4,41.6,29.87,SW,215,8.0,15.0,19,0.00,,,-99.99,Weather View 32 v60,2013-09-10 21:10:00,
2013-09-10 17:20:00,89.2,41.5,29.87,SW,218,4.0,15.0,19,0.00,,,-99.99,Weather View 32 v60,2013-09-10 21:20:00,
2013-09-10 17:25:00,89.2,41.5,29.87,WSW,252,8.0,15.0,19,0.00,,,-99.99,Weather View 32 v60,2013-09-10 21:25:00,
2013-09-10 17:30:00,89.2,41.5,29.87,NW,310,4.0,15.0,19,0.00,,,-99.99,Weather View 32 v60,2013-09-10 21:30:00,
2013-09-10 17:35:00,89.2,41.5,29.87,West,280,6.0,15.0,19,0.00,,,-99.99,Weather View 32 v60,2013-09-10 21:35:00,
2013-09-10 17:40:00,89.2,41.5,29.87,WSW,253,3.0,15.0,19,0.00,,,-99.99,Weather View 32 v60,2013-09-10 21:40:00,
2013-09-10 17:45:00,89.1,41.3,29.87,SE,144,4.0,15.0,19,0.00,,,-99.99,Weather View 32 v60,2013-09-10 21:45:00,
2013-09-10 17:50:00,89.1,41.3,29.87,South,172,0.0,15.0,19,0.00,,,-99.99,Weather View 32 v60,2013-09-10 21:50:00,
2013-09-10 18:00:00,88.9,41.2,29.87,West,267,4.0,15.0,19,0.00,,,-99.99,Weather View 32 v60,2013-09-10 22:00:00,
2013-09-10 18:05:00,88.7,41.0,29.87,SW,225,6.0,15.0,19,0.00,,,-99.99,Weather View 32 v60,2013-09-10 22:05:00,
2013-09-10 18:10:00,88.7,41.0,29.87,SW,219,7.0,15.0,19,0.00,,,-99.99,Weather View 32 v60,2013-09-10 22:10:00,
2013-09-10 18:15:00,88.5,40.9,29.87,WSW,238,7.0,15.0,19,0.00,,,-99.99,Weather View 32 v60,2013-09-10 22:15:00,
2013-09-10 18:20:00,88.5,40.9,29.87,WSW,240,4.0,15.0,19,0.00,,,-99.99,Weather View 32 v60,2013-09-10 22:20:00,
2013-09-10 18:25:00,88.3,40.7,29.87,West,263,4.0,15.0,19,0.00,,,-99.99,Weather View 32 v60,2013-09-10 22:25:00,
2013-09-10 18:35:00,88.2,40.6,29.87,West,267,6.0,15.0,19,0.00,,,-99.99,Weather View 32 v60,2013-09-10 22:35:00,
2013-09-10 18:40:00,88.0,40.4,29.87,SW,232,6.0,15.0,19,0.00,,,-99.99,Weather View 32 v60,2013-09-10 22:40:00,
2013-09-10 18:45:00,88.0,40.4,29.87,WSW,241,4.0,15.0,19,0.00,,,-99.99,Weather View 32 v60,2013-09-10 22:45:00,
2013-09-10 18:50:00,87.8,40.3,29.87,SW,230,6.0,15.0,19,0.00,,,-99.99,Weather View 32 v60,2013-09-10 22:50:00,
2013-09-10 18:55:00,87.6,40.1,29.87,SW,222,3.0,15.0,19,0.00,,,-99.99,Weather View 32 v60,2013-09-10 22:55:00,
2013-09-10 19:00:00,87.4,40.0,29.87,NW,310,3.0,12.0,19,0.00,,,-99.99,Weather View 32 v60,2013-09-10 23:00:00,
2013-09-10 19:05:00,87.3,39.8,29.87,SE,146,0.0,12.0,19,0.00,,,-99.99,Weather View 32 v60,2013-09-10 23:05:00,
2013-09-10 19:10:00,87.1,39.7,29.87,SW,235,3.0,11.0,19,0.00,,,-99.99,Weather View 32 v60,2013-09-10 23:10:00,
2013-09-10 19:20:00,86.9,39.6,29.87,WSW,251,3.0,11.0,19,0.00,,,-99.99,Weather View 32 v60,2013-09-10 23:20:00,
2013-09-10 19:25:00,86.7,40.7,29.87,SW,217,4.0,11.0,20,0.00,,,-99.99,Weather View 32 v60,2013-09-10 23:25:00,
2013-09-10 19:30:00,86.5,40.6,29.87,West,265,0.0,11.0,20,0.00,,,-99.99,Weather View 32 v60,2013-09-10 23:30:00,
2013-09-10 19:35:00,86.4,40.4,29.87,WNW,293,3.0,11.0,20,0.00,,,-99.99,Weather View 32 v60,2013-09-10 23:35:00,
2013-09-10 19:40:00,86.0,40.1,29.90,SW,214,0.0,11.0,20,0.00,,,-99.99,Weather View 32 v60,2013-09-10 23:40:00,
2013-09-10 19:45:00,85.8,40.0,29.90,WSW,256,3.0,11.0,20,0.00,,,-99.99,Weather View 32 v60,2013-09-10 23:45:00,
2013-09-10 19:50:00,85.6,39.8,29.90,WSW,254,0.0,11.0,20,0.00,,,-99.99,Weather View 32 v60,2013-09-10 23:50:00,
2013-09-10 19:55:00,85.5,39.7,29.90,SSW,202,0.0,10.0,20,0.00,,,-99.99,Weather View 32 v60,2013-09-10 23:55:00,
2013-09-10 20:00:00,85.1,39.4,29.90,SSW,194,0.0,10.0,20,0.00,,,-99.99,Weather View 32 v60,2013-09-11 00:00:00,
2013-09-10 20:10:00,84.6,40.2,29.90,SW,232,0.0,10.0,21,0.00,,,-99.99,Weather View 32 v60,2013-09-11 00:10:00,
2013-09-10 20:15:00,84.2,39.9,29.90,SW,232,0.0,10.0,21,0.00,,,-99.99,Weather View 32 v60,2013-09-11 00:15:00,
2013-09-10 20:20:00,84.0,39.8,29.90,SSW,204,0.0,10.0,21,0.00,,,-99.99,Weather View 32 v60,2013-09-11 00:20:00,
2013-09-10 20:25:00,83.5,40.5,29.90,ESE,120,0.0,10.0,22,0.00,,,-99.99,Weather View 32 v60,2013-09-11 00:25:00,
2013-09-10 20:30:00,83.1,40.2,29.90,South,175,0.0,8.0,22,0.00,,,-99.99,Weather View 32 v60,2013-09-11 00:30:00,
2013-09-10 20:35:00,82.8,39.9,29.90,SSE,160,0.0,8.0,22,0.00,,,-99.99,Weather View 32 v60,2013-09-11 00:35:00,
2013-09-10 20:45:00,82.2,40.6,29.90,SSW,205,0.0,5.0,23,0.00,,,-99.99,Weather View 32 v60,2013-09-11 00:45:00,
2013-09-10 20:50:00,81.9,40.3,29.90,SSW,205,0.0,4.0,23,0.00,,,-99.99,Weather View 32 v60,2013-09-11 00:50:00,
2013-09-10 20:55:00,81.7,40.2,29.90,South,186,0.0,4.0,23,0.00,,,-99.99,Weather View 32 v60,2013-09-11 00:55:00,
2013-09-10 21:00:00,81.5,41.1,29.90,SSW,202,0.0,4.0,24,0.00,,,-99.99,Weather View 32 v60,2013-09-11 01:00:00,
2013-09-10 21:05:00,81.1,40.8,29.90,South,170,0.0,4.0,24,0.00,,,-99.99,Weather View 32 v60,2013-09-11 01:05:00,
2013-09-10 21:10:00,81.0,40.7,29.90,South,179,0.0,4.0,24,0.00,,,-99.99,Weather View 32 v60,2013-09-11 01:10:00,
2013-09-10 21:15:00,80.6,40.4,29.90,SE,140,0.0,4.0,24,0.00,,,-99.99,Weather View 32 v60,2013-09-11 01:15:00,
2013-09-10 21:20:00,80.4,41.3,29.90,SSW,203,0.0,4.0,25,0.00,,,-99.99,Weather View 32 v60,2013-09-11 01:20:00,
2013-09-10 21:30:00,80.1,41.0,29.93,WSW,245,2.0,4.0,25,0.00,,,-99.99,Weather View 32 v60,2013-09-11 01:30:00,
2013-09-10 21:35:00,79.9,40.8,29.93,West,276,0.0,4.0,25,0.00,,,-99.99,Weather View 32 v60,2013-09-11 01:35:00,
2013-09-10 21:40:00,79.7,40.7,29.93,SSW,196,0.0,4.0,25,0.00,,,-99.99,Weather View 32 v60,2013-09-11 01:40:00,
2013-09-10 21:45:00,79.5,40.5,29.93,South,169,0.0,4.0,25,0.00,,,-99.99,Weather View 32 v60,2013-09-11 01:45:00,
2013-09-10 21:50:00,79.5,40.5,29.93,SSE,161,3.0,4.0,25,0.00,,,-99.99,Weather View 32 v60,2013-09-11 01:50:00,
2013-09-10 21:55:00,79.3,40.4,29.93,South,175,0.0,4.0,25,0.00,,,-99.99,Weather View 32 v60,2013-09-11 01:55:00,
2013-09-10 22:00:00,79.3,40.4,29.93,SSE,149,0.0,4.0,25,0.00,,,-99.99,Weather View 32 v60,2013-09-11 02:00:00,
2013-09-10 22:05:00,79.2,41.2,29.93,SSW,212,0.0,4.0,26,0.00,,,-99.99,Weather View 32 v60,2013-09-11 02:05:00,
2013-09-10 22:15:00,79.0,41.1,29.93,South,170,0.0,4.0,26,0.00,,,-99.99,Weather View 32 v60,2013-09-11 02:15:00,
2013-09-10 22:20:00,79.0,41.1,29.93,SSW,197,0.0,4.0,26,0.00,,,-99.99,Weather View 32 v60,2013-09-11 02:20:00,
2013-09-10 22:25:00,78.8,40.9,29.93,SW,218,0.0,4.0,26,0.00,,,-99.99,Weather View 32 v60,2013-09-11 02:25:00,
2013-09-10 22:30:00,78.8,40.9,29.93,South,183,0.0,4.0,26,0.00,,,-99.99,Weather View 32 v60,2013-09-11 02:30:00,
2013-09-10 22:35:00,78.6,41.7,29.93,South,190,3.0,4.0,27,0.00,,,-99.99,Weather View 32 v60,2013-09-11 02:35:00,
2013-09-10 22:40:00,78.6,41.7,29.93,SSE,157,0.0,4.0,27,0.00,,,-99.99,Weather View 32 v60,2013-09-11 02:40:00,
2013-09-10 22:45:00,78.4,41.6,29.93,SW,214,3.0,4.0,27,0.00,,,-99.99,Weather View 32 v60,2013-09-11 02:45:00,
2013-09-10 22:50:00,78.4,41.6,29.93,SW,225,0.0,6.0,27,0.00,,,-99.99,Weather View 32 v60,2013-09-11 02:50:00,
2013-09-10 23:00:00,78.3,41.4,29.93,South,172,3.0,6.0,27,0.00,,,-99.99,Weather View 32 v60,2013-09-11 03:00:00,
2013-09-10 23:05:00,78.3,42.4,29.93,SSE,166,0.0,6.0,28,0.00,,,-99.99,Weather View 32 v60,2013-09-11 03:05:00,
2013-09-10 23:10:00,78.1,42.2,29.90,SSW,195,0.0,6.0,28,0.00,,,-99.99,Weather View 32 v60,2013-09-11 03:10:00,
2013-09-10 23:15:00,78.1,42.2,29.90,South,189,0.0,6.0,28,0.00,,,-99.99,Weather View 32 v60,2013-09-11 03:15:00,
2013-09-10 23:20:00,78.1,42.2,29.90,SSE,166,0.0,6.0,28,0.00,,,-99.99,Weather View 32 v60,2013-09-11 03:20:00,
2013-09-10 23:25:00,77.9,42.1,29.90,SSW,193,0.0,6.0,28,0.00,,,-99.99,Weather View 32 v60,2013-09-11 03:25:00,
2013-09-10 23:30:00,77.9,42.1,29.90,SSE,167,0.0,6.0,28,0.00,,,-99.99,Weather View 32 v60,2013-09-11 03:30:00,
2013-09-10 23:35:00,77.7,41.9,29.90,SSE,167,0.0,6.0,28,0.00,,,-99.99,Weather View 32 v60,2013-09-11 03:35:00,
2013-09-10 23:40:00,77.7,41.9,29.90,SSE,165,0.0,6.0,28,0.00,,,-99.99,Weather View 32 v60,2013-09-11 03:40:00,
2013-09-10 23:50:00,77.5,42.7,29.90,SE,143,0.0,5.0,29,0.00,,,-99.99,Weather View 32 v60,2013-09-11 03:50:00,
2013-09-10 23:55:00,77.4,42.5,29.90,WSW,254,0.0,5.0,29,0.00,,,-99.99,Weather View 32 v60,2013-09-11 03:55:00,